Location: Bailleul
(50.3375°N, 2.8513°E)
Time: 13:54:40
(UTC+00:00)

Cosmos 292 Rocket - Pass Details

Date: 16 June 2021
Orbit: 674 x 693 km, 74.0° (Epoch: 29 July)

Event Time Altitude Azimuth Distance (km) Brightness Sun altitude
Rises 20:43:54 0° 196° (SSW) 3,052 6.8 -5.7°
Reaches altitude 10° 20:46:12 10° 195° (SSW) 2,138 6.0 -5.9°
Maximum altitude 20:51:00 74° 111° (ESE) 721 3.8 -6.4°
Drops below altitude 10° 20:55:49 10° 27° (NNE) 2,143 6.7 -6.9°
Sets 20:58:08 0° 26° (NNE) 3,060 7.5 -7.1°
